FW6114 Weather Reports


time (UTC)temp
C
wind
direction
speed
KPH
gust
KPH
rain 1hr
cm
rain 24hr
cm
rain mn
cm
humidity
%
barometer
mb
20260510161543 7 342 0.0 9.7 0.15 1.17 0.76 86 1012.4
20260510160040 7 298 3.2 14.5 0.10 1.14 0.71 84 1012.3
20260510154535 7 290 4.8 19.3 0.08 1.09 0.66 83 1012.0
20260510153038 7 294 3.2 14.5 0.08 1.09 0.66 87 1012.0
20260510151527 7 295 1.6 16.1 0.05 1.07 0.61 85 1012.1
20260510150018 7 312 0.0 11.3 0.15 1.07 0.61 84 1011.9
20260510144607 7 269 0.0 12.9 0.15 1.04 0.58 86 1011.9
20260510143030 7 327 0.0 8.0 0.15 1.04 0.58 86 1012.0
20260510141504 8 355 9.7 25.7 0.13 0.99 0.53 83 1012.1
20260510140038 8 305 0.0 12.9 0.20 0.91 0.46 86 1011.3
20260510134511 8 269 1.6 17.7 0.20 0.89 0.43 84 1011.4
20260510133043 8 281 0.0 17.7 0.20 0.89 0.43 84 1011.5
20260510131526 8 346 0.0 12.9 0.18 0.89 0.43 82 1011.7
20260510130059 8 291 1.6 11.3 0.03 0.71 0.25 81 1011.4
20260510124536 10 276 1.6 19.3 0.05 0.71 0.23 80 1011.1
20260510123010 9 281 1.6 14.5 0.05 0.71 0.23 83 1011.3
20260510121543 8 5 0.0 16.1 0.05 0.71 0.23 84 1011.6
20260510120023 8 298 1.6 24.1 0.08 0.71 0.23 80 1011.8
20260510114510 10 296 4.8 24.1 0.03 0.64 0.18 80 1011.5
20260510113005 10 277 9.7 22.5 0.03 0.64 0.18 78 1011.4
20260510111541 9 297 1.6 14.5 0.03 0.64 0.18 85 1011.7
20260510110046 9 268 6.4 17.7 0.05 0.61 0.15 79 1011.8
20260510104524 9 283 1.6 11.3 0.05 0.61 0.15 83 1011.8
20260510103018 8 294 0.0 6.4 0.08 0.61 0.15 84 1012.2
20260510101602 7 300 0.0 0.0 0.15 0.61 0.15 85 1012.5
20260510100054 7 308 0.0 6.4 0.10 0.58 0.13 84 1012.5
20260510094550 7 283 0.0 9.7 0.08 0.56 0.10 85 1012.5
20260510093021 7 273 1.6 16.1 0.05 0.53 0.08 83 1012.5
20260510091512 8 291 3.2 11.3 0.00 0.48 0.03 81 1012.4
20260510090050 8 335 4.8 25.7 0.00 0.48 0.03 75 1012.3
20260510084542 8 284 0.0 6.4 0.00 0.48 0.03 76 1012.2
20260510083036 8 288 0.0 12.9 0.00 0.48 0.03 76 1012.1
20260510081537 8 289 0.0 9.7 0.00 0.48 0.03 77 1012.1
20260510080039 8 288 0.0 14.5 0.00 0.48 0.03 77 1012.2
20260510074517 8 277 0.0 16.1 0.00 0.48 0.03 76 1012.1
20260510073013 8 288 1.6 17.7 0.00 0.48 0.03 78 1011.9
20260510071550 7 306 1.6 12.9 0.00 0.48 0.03 79 1011.9
20260510070022 7 341 1.6 12.9 0.00 0.48 0.03 80 1012.0
20260510064601 7 306 1.6 12.9 0.00 0.48 0.03 80 1012.0
20260510063037 7 280 0.0 8.0 0.00 0.48 0.03 79 1011.9
20260510061508 6 287 0.0 11.3 0.00 0.48 0.03 79 1011.8
20260510060047 6 319 1.6 16.1 0.00 0.48 0.03 80 1011.7
20260510054517 6 275 0.0 8.0 0.00 0.48 0.03 79 1011.4
20260510053054 6 237 0.0 9.7 0.00 0.48 0.03 80 1011.4
20260510051526 6 273 0.0 12.9 0.00 0.48 0.03 80 1011.4
20260510050108 6 283 1.6 12.9 0.00 0.48 0.03 79 1011.1
20260510044529 6 304 0.0 12.9 0.00 0.48 0.03 81 1011.0
20260510043007 7 265 4.8 22.5 0.03 0.48 0.03 80 1010.9
20260510041545 6 313 3.2 17.7 0.03 0.48 0.03 83 1010.9
20260510040023 6 254 6.4 22.5 0.03 0.48 0.03 84 1010.9
20260510034555 7 279 1.6 14.5 0.03 0.48 0.03 83 1011.1
20260510033043 7 301 1.6 19.3 0.00 0.46 0.00 81 1011.3
20260510031513 7 321 0.0 16.1 0.00 0.46 0.00 81 1011.4
20260510030050 7 276 3.2 12.9 0.00 0.46 0.00 80 1011.4
20260510024524 7 275 1.6 14.5 0.00 0.46 0.00 79 1011.4
20260510023001 7 290 0.0 9.7 0.00 0.46 0.00 79 1011.6
20260510021630 7 329 3.2 12.9 0.00 0.46 0.00 79 1011.7
20260510020016 7 276 3.2 22.5 0.00 0.46 0.00 79 1011.5
20260510014559 7 281 0.0 16.1 0.00 0.46 0.00 80 1011.5
20260510013031 7 277 1.6 11.3 0.00 0.46 0.00 79 1011.5
20260510011519 7 267 0.0 20.9 0.00 0.46 0.00 79 1011.8
20260510010059 7 232 3.2 22.5 0.00 0.46 0.00 79 1011.9
20260510004548 7 311 4.8 14.5 0.00 0.46 0.00 79 1012.1
20260510003043 7 312 8.0 24.1 0.00 0.46 0.00 79 1012.1
20260510001536 7 281 6.4 17.7 0.00 0.46 0.00 80 1012.3
20260510000028 7 275 4.8 17.7 0.00 0.46 0.00 80 1012.2
20260509234524 7 290 1.6 17.7 0.00 0.46 0.00 80 1012.3
20260509233102 7 278 4.8 14.5 0.00 0.46 0.00 80 1012.3
20260509231535 7 315 1.6 16.1 0.00 0.46 0.00 81 1012.5
20260509230036 7 275 1.6 16.1 0.00 0.46 0.00 82 1012.5
20260509224522 7 310 1.6 14.5 0.00 0.46 0.00 83 1012.4
20260509223102 7 279 0.0 6.4 0.00 0.46 0.00 84 1012.4
20260509221538 7 283 0.0 8.0 0.00 0.46 0.00 84 1012.3
20260509220008 7 294 0.0 0.0 0.00 0.46 0.46 84 1012.4
20260509214546 7 298 0.0 4.8 0.00 0.46 0.46 83 1012.2
20260509213040 7 299 0.0 6.4 0.00 0.46 0.46 83 1012.1
20260509211537 7 292 0.0 8.0 0.00 0.46 0.46 85 1012.1
20260509210009 8 290 0.0 6.4 0.00 0.46 0.46 85 1012.3
20260509204539 7 305 0.0 0.0 0.00 0.46 0.46 86 1012.2
20260509203017 7 332 0.0 0.0 0.00 0.46 0.46 87 1011.9
20260509201549 7 336 0.0 1.6 0.00 0.46 0.46 87 1011.7
20260509200021 7 278 0.0 3.2 0.03 0.46 0.46 87 1011.4
20260509194523 8 281 0.0 0.0 0.10 0.46 0.46 87 1011.4
20260509193053 8 291 0.0 1.6 0.15 0.46 0.46 88 1011.2
20260509191528 8 329 0.0 1.6 0.23 0.46 0.46 87 1011.1
20260509190019 8 312 0.0 4.8 0.23 0.43 0.43 87 1010.9
20260509184515 8 271 0.0 6.4 0.15 0.36 0.36 87 1010.9
20260509183013 8 313 0.0 0.0 0.15 0.30 0.30 86 1010.5
20260509181551 8 317 0.0 0.0 0.10 0.23 0.23 87 1010.2
20260509180050 8 315 0.0 0.0 0.08 0.23 0.23 85 1010.2
20260509174527 9 283 0.0 12.9 0.05 0.20 0.20 83 1010.1
20260509173029 10 273 1.6 12.9 0.03 0.15 0.15 77 1009.5
20260509171519 12 262 0.0 9.7 0.03 0.15 0.15 75 1009.3
20260509170015 12 286 0.0 0.0 0.10 0.15 0.15 75 1009.1
20260509164549 11 293 0.0 0.0 0.10 0.15 0.15 82 1009.2
20260509163020 9 275 0.0 0.0 0.10 0.15 0.15 83 1009.5